Regional Weather Roundup
Issued by NWS Cleveland, OH

Home | Current Version | Previous Version | Text Only | Print | Product List | Glossary Off
Versions: 1 2 3 4 5 6 7 8 9 10 11 12 13 14 15 16 17 18 19 20 21 22 23 24 25 26 27 28 29 30 31 32 33 34 35 36 37 38 39 40 41 42 43 44 45 46 47 48 49 50

996
ASUS41 KCLE 280212
RWRCLE
OHIO REGIONAL WEATHER ROUNDUP
NATIONAL WEATHER SERVICE WILMINGTON, OH
1000 PM EDT TUE SEP 27 2016

NOTE: "FAIR" INDICATES FEW OR NO CLOUDS BELOW 12,000 FEET WITH NO
SIGNIFICANT WEATHER AND/OR OBSTRUCTIONS TO VISIBILITY.

OHZ001>008-015>018-024>027-034-035-043-044-280300-
   NORTHWEST OHIO

CITY           SKY/WX    TMP DP  RH WIND       PRES   REMARKS
DEFIANCE       FAIR      53  44  71 CALM      29.80R
FINDLAY        FAIR      55  39  54 S7        29.81R
TOLEDO EXPRESS FAIR      50  47  89 CALM      29.80R
TOLEDO EXEC    FAIR      54  43  66 SE3       29.81R
LIMA           FAIR      58  44  60 S6        29.83R
$$

OHZ009>014-019>023-028>033-038-089-280300-
   NORTHEAST OHIO

CITY           SKY/WX    TMP DP  RH WIND       PRES   REMARKS
CLE-HOPKINS    FAIR      65  42  43 S7        29.86R
CLE-LAKEFRONT  FAIR      67  43  41 S9        29.83R
CUY CO. ARPT   MOCLDY    61  46  59 S5        29.85R
LORAIN-ELYRIA  FAIR      53  40  61 S7        29.84R
ASHTABULA      FAIR      59  43  55 SW3       29.87R
AKRON-CANTON   FAIR      59  40  49 S10       29.88R
WOOSTER        LGT RAIN  59  43  55 S6        29.87R
MANSFIELD      FAIR      60  45  57 S12       29.86R
YOUNGSTOWN     MOCLDY    61  41  47 S7        29.88R
$$

OHZ042-051>053-060>062-070>072-077>081-280300-
  SOUTHWEST OHIO

CITY           SKY/WX    TMP DP  RH WIND       PRES   REMARKS
CINC-COVINGTON FAIR      58  50  75 S6        29.88R
CINC-LUNKEN    FAIR      56  52  86 CALM      29.89R
HAMILTON       FAIR      56  49  77 CALM      29.88R
DAYTON         FAIR      63  46  54 S9        29.86S
WRIGHT-PAT AFB FAIR      60  47  63 S5        29.85S
DAYTON GENERAL FAIR      60  46  59 S7        29.86S
WILMINGTON     FAIR      58  46  64 S6        29.88S
$$

OHZ036-037-039>041-045>050-054>059-063>069-073>076-082>088-280300-
  CENTRAL AND SOUTHEAST OHIO

CITY           SKY/WX    TMP DP  RH WIND       PRES   REMARKS
COLUMBUS       FAIR      63  45  51 S6        29.87R
OSU AIRPORT    FAIR      63  45  51 S8        29.87R
BOLTON FIELD   FAIR      58  46  66 S7        29.88R
RICKENBACK AFB FAIR      59  44  58 S7        29.87S
NEWARK         FAIR      54  47  77 CALM      29.88R
MARION         MOCLDY    61  46  57 S9        29.85R
LANCASTER      FAIR      53  46  77 S3        29.89R
ZANESVILLE     FAIR      56  45  66 S5        29.90R
NEW PHILLY     FAIR      57  46  66 SE3       29.89R
$$




USA.gov is the U.S. government's official web portal to all federal, state and local government web resources and services.